Regional Weather Roundup
Issued by NWS

Home | Current Version | Previous Version | Text Only | Print | Product List | Glossary On
Versions: 1 2 3 4 5 6 7 8 9 10 11 12 13 14 15 16 17 18 19 20 21 22 23 24 25 26 27 28 29 30 31 32 33 34 35 36 37 38 39 40 41 42 43 44 45 46 47 48
000
ASUS44 KBMX 201010
RWRAL

ALABAMA REGIONAL WEATHER ROUNDUP
NATIONAL WEATHER SERVICE BIRMINGHAM AL
400 AM CST SAT DEC 20 2014

NOTE: "FAIR" INDICATES FEW OR NO CLOUDS BELOW 12,000 FEET
WITH NO SIGNIFICANT WEATHER AND/OR OBSTRUCTIONS TO VISIBILITY.

THE REMARK "TC" DENOTES TEMPERATURE IN DEGREES CELSIUS.

ALZ001>011-014-016>018-020-201100-
NORTH ALABAMA

CITY           SKY/WX    TMP DP  RH WIND       PRES   REMARKS
MUSCLE SHOALS  MOCLDY    37  31  78 N3        30.21S
HUNTSVILLE     MOCLDY    38  31  76 CALM      30.19S
DECATUR        CLOUDY    36  31  82 CALM      30.20S
HALEYVILLE     FAIR      33  32  96 CALM      30.20S FOG
GADSDEN        CLOUDY    39  36  87 CALM      30.17S
$$

ALZ012-013-022-023-030>036-040>044-201100-
WEST CENTRAL ALABAMA

CITY           SKY/WX    TMP DP  RH WIND       PRES   REMARKS
TUSCALOOSA     CLOUDY    42  39  89 N5        30.19R
$$

ALZ015-024>027-033>036-040>044-201100-
CENTRAL ALABAMA

CITY           SKY/WX    TMP DP  RH WIND       PRES   REMARKS
BIRMINGHAM     CLOUDY    40  38  93 N5        30.19S FOG
MONTGOMERY     LGT RAIN  45  43  93 N8        30.15R
SHELBY CO ARPT LGT RAIN  42  40  92 N6        30.17R FOG
MAXWELL AFB    LGT RAIN  45  44  95 N8        30.14R
GREENVILLE     LGT RAIN  46  43  89 N5        30.11R FOG
$$

ALZ019-021-028-029-037-038-045>048-201100-
EAST CENTRAL ALABAMA

CITY           SKY/WX    TMP DP  RH WIND       PRES   REMARKS
ANNISTON       LGT RAIN  42  40  92 CALM      30.14F
ALEXANDER CITY DRIZZLE   44  40  86 CALM      30.14R
AUBURN         CLOUDY    41  37  87 NE5       30.13R
$$

ALZ051>064-201100-
SOUTHWEST ALABAMA

CITY           SKY/WX    TMP DP  RH WIND       PRES   REMARKS
MOBILE         LGT RAIN  46  45  96 N8        30.08F
BROOKLEY FIELD LGT RAIN  49  47  93 N8        30.09F
EVERGREEN      CLOUDY    47  45  93 N3        30.12R
$$

ALZ049-050-065>069-201100-
SOUTHEAST ALABAMA

CITY           SKY/WX    TMP DP  RH WIND       PRES   REMARKS
DOTHAN         CLOUDY    46  46 100 E5        30.12S
OZARK          CLOUDY    47  45  94 NE7       30.09F
TROY           LGT RAIN  46  45  96 CALM      30.12S FOG
EUFAULA        LGT RAIN  46  45  93 CALM      30.11S FOG
$$



USA.gov is the U.S. government's official web portal to all federal, state and local government web resources and services.